Regional Weather Roundup
Issued by NWS Goodland, KS

Home | Current Version | Previous Version | Graphics & Text | Print | Product List | Glossary On
Versions: 1 2 3 4 5 6 7 8 9 10 11 12 13 14 15 16 17 18 19 20 21 22 23 24 25 26 27 28 29 30 31 32 33 34 35 36 37 38 39 40 41 42 43 44 45 46 47 48 49 50
000
ASUS43 KGLD 192108
RWRGLD

GOODLAND FORECAST AREA HOURLY WEATHER ROUNDUP
NATIONAL WEATHER SERVICE GOODLAND KS
300 PM MDT SUN OCT 19 2014

...OFFICIAL OBSERVATIONS...

CITY           SKY/WX    TMP DP  RH WIND       PRES   REMARKS
GOODLAND KS    SUNNY     76  41  28 NE8       30.01S
HILL CITY KS   SUNNY     74  47  38 VRB3      29.96F
IMPERIAL NEB   SUNNY     75  41  29 NE10      30.00S
MCCOOK NEB     SUNNY     72  47  40 VRB6      29.98F
AKRON CO       SUNNY     74  38  27 NE8       30.07S
BURLINGTON CO  SUNNY     77  37  23 N13       30.03S
LIMON CO       MOSUNNY   73  32  22 N12       30.09F
$$

...UNOFFICIAL OBSERVATIONS...

CITY           SKY/WX    TMP DP  RH WIND       PRES   REMARKS
COLBY KS       SUNNY     73  48  40 N8        29.99S
GOVE KS          N/A     72  32  23 MISG        N/A
NORTON KS      SUNNY     73  43  33 CALM      29.96S
SHARON SPRINGS   N/A     77  46  33 N8          N/A
TRENTON NEB      N/A     76  32  20 NE8         N/A
KIT CARSON CO    N/A     77  40  26 N5G12       N/A
YUMA CO          N/A     76  37  24 NE12        N/A
$$


USA.gov is the U.S. government's official web portal to all federal, state and local government web resources and services.